Regional Weather Roundup
Issued by NWS Charleston, WV

Home | Current Version | Previous Version | Text Only | Print | Product List | Glossary Off
Versions: 1 2 3 4 5 6 7 8 9 10 11 12 13 14 15 16 17 18 19 20 21 22 23 24 25 26 27 28 29 30 31 32 33 34 35 36 37 38 39 40 41 42 43 44 45 46 47 48 49 50

000
ASUS41 KRLX 030010
RWRRLX
West Virginia Regional Weather Roundup
National Weather Service Charleston WV
800 PM EDT SUN AUG 02 2015

Note: "fair" indicates few or no clouds below 12,000 feet with no
significant weather and/or obstructions to visibility.

WVZ003-030100-
Northern Panhandle of West Virginia

CITY           SKY/WX    TMP DP  RH WIND       PRES   REMARKS
WHEELING       CLEAR     80  61  52 SW9       29.90F
$$

WVZ009-030100-
Northwest West Virginia

CITY           SKY/WX    TMP DP  RH WIND       PRES   REMARKS
PARKERSBURG    CLEAR     81  59  47 SW9       29.95S
$$

WVZ006-030100-
Western West Virginia

CITY           SKY/WX    TMP DP  RH WIND       PRES   REMARKS
HUNTINGTON     CLEAR     80  61  52 S3        29.94S
$$

WVZ015-030100-
West Central West Virginia

CITY           SKY/WX    TMP DP  RH WIND       PRES   REMARKS
CHARLESTON     CLEAR     81  59  47 SW5       29.94F
$$

WVZ022-031-030100-
North Central West Virginia

CITY           SKY/WX    TMP DP  RH WIND       PRES   REMARKS
CLARKSBURG     PTCLDY    78  59  51 SW7       29.95S
MORGANTOWN     CLEAR     83  56  39 SW6       29.95S
$$

WVZ025-035-042-045-030100-
Southern West Virginia

CITY           SKY/WX    TMP DP  RH WIND       PRES   REMARKS
BECKLEY        CLEAR     75  53  46 W3        30.04S
LOGAN            N/A     79  59  50 CALM      29.95S
BLUEFIELD      CLEAR     75  55  49 CALM      30.05F
LEWISBURG      CLEAR     76  56  50 CALM      30.03S
$$

WVZ047-030100-
Northern Mountains of West Virginia

CITY           SKY/WX    TMP DP  RH WIND       PRES   REMARKS
ELKINS         CLEAR     76  58  53 NW3       30.01R
$$

WVZ052-030100-
Eastern Panhandle of West Virginia

CITY           SKY/WX    TMP DP  RH WIND       PRES   REMARKS
MARTINSBURG    CLEAR     80  59  48 S7        29.91S
PETERSBURG     PTCLDY   N/A N/A N/A S10       29.94S
$$



USA.gov is the U.S. government's official web portal to all federal, state and local government web resources and services.